Home   Weather   41°56'N, 87°40'W   Past weeks
Flag for USA

Past Weather in 41°56'N, 87°40'W, USA — Yesterday and Last 2 Weeks

Now
50 °F

Passing clouds.


Feels Like: 45 °F
Forecast: 57 / 44 °F
Wind: 14 mph from West

Location: Chicago Midway Airport

Current Time: Oct 22, 2019 at 10:36:42 pm

Latest Report: Oct 22, 2019 at 9:53 pm


Visibility: 10 mi

Pressure: 29.80 "Hg

Humidity: 57%

Dew Point: 35 °F

Location of 41°56'N, 87°40'WLocation

Past Weather in 41°56'N, 87°40'W — Graph

°F

41°56'N, 87°40'W Temperature Yesterday

Maximum temperature yesterday: 67 °F (at 3:53 pm)
Minimum temperature yesterday: 53 °F (at 12:53 am)
Average temperature yesterday: 59 °F

High & Low Weather Summary for the Past Weeks

 TemperatureHumidityPressure
High71 °F (Oct 8, 3:53 pm)100% (Oct 20, 10:53 pm)30.24 "Hg (Oct 20, 10:53 pm)
Low37 °F (Oct 12, 5:53 am)32% (Oct 8, 3:53 pm)29.42 "Hg (Oct 21, 3:53 pm)
Average54 °F66%29.92 "Hg
* Reported Oct 7 8:53 pm — Oct 22 8:53 pm, 41°56'N, 87°40'W. Weather by CustomWeather, © 2019

Note: Actual official high and low records may vary slightly from our data, if they occured in-between our weather recording intervals... More about our weather records

Advertising

41°56'N, 87°40'W Weather History for the Previous 24 Hours

Scroll right to see more
 ConditionsComfort  
Time TempWeatherWind HumidityBarometerVisibility
8:53 pm
Tue, Oct 22
50 °FOvercast.12 mph61%29.79 "Hg10 mi
7:53 pm50 °FPassing clouds.13 mph61%29.78 "Hg10 mi
6:53 pm50 °FPassing clouds.13 mph59%29.76 "Hg10 mi
5:53 pm51 °FPartly sunny.18 mph59%29.74 "Hg10 mi
4:53 pm51 °FBroken clouds.15 mph56%29.71 "Hg10 mi
3:53 pm51 °FMostly cloudy.14 mph59%29.69 "Hg10 mi
2:53 pm50 °FMostly cloudy.18 mph61%29.67 "Hg10 mi
1:53 pm49 °FMostly cloudy.20 mph66%29.66 "Hg10 mi
1:32 pm49 °FCloudy.18 mph69%29.65 "Hg10 mi
12:53 pm48 °FLight rain. Mostly cloudy.21 mph71%29.66 "Hg10 mi
11:53 am48 °FLight rain. Cloudy.23 mph77%29.64 "Hg10 mi
11:36 am48 °FCloudy.23 mph77%29.62 "Hg10 mi
10:53 am48 °FMostly cloudy.24 mph77%29.60 "Hg10 mi
9:53 am48 °FLight rain. Mostly cloudy.16 mph80%29.58 "Hg8 mi
8:53 am50 °FLight rain. Mostly cloudy.23 mph71%29.56 "Hg9 mi
7:53 am49 °FPartly sunny.22 mph71%29.53 "Hg10 mi
6:53 am50 °FPartly cloudy.22 mph68%29.52 "Hg10 mi
5:53 am49 °FPartly cloudy.18 mph77%29.51 "Hg10 mi
5:36 am49 °FLight rain. Passing clouds.17 mph77%29.51 "Hg10 mi
4:53 am50 °FPassing clouds.18 mph68%29.49 "Hg10 mi
3:53 am51 °FOvercast.17 mph66%29.49 "Hg10 mi
2:53 am51 °FPassing clouds.21 mph63%29.51 "Hg10 mi
1:53 am51 °FPassing clouds.18 mph63%29.52 "Hg10 mi
12:53 am53 °FClear.18 mph59%29.53 "Hg10 mi
11:53 pm
Mon, Oct 21
53 °FClear.15 mph59%29.53 "Hg10 mi
10:53 pm53 °FClear.15 mph59%29.55 "Hg10 mi
Weather by CustomWeather, © 2019

See weather overview